When you browse on this site, cookies collect data to enhance your experience and personalize the content and advertising you see.
Visit our Privacy Policy to learn more. By continuing to use the site, you agree to this use of cookies and data.
  • In Hungary
  • List of Countries
  • For 7 days
  • Water Temperature
  • Weather Map
  • News
  • Weather Widgets
  • user-avatar
    Login

    Hourly Weather Chemax

    Today, 30 March, Monday

    Time Temperature Precipitation Wind Pressure Humidity
    00:00 +24°C° 0 mm 1 mps 760 mmHg 97%
    01:00 +24°C° 0 mm 1 mps 760 mmHg 97%
    02:00 +23°C° 0 mm 1 mps 759 mmHg 98%
    03:00 +23°C° 0 mm 1 mps 759 mmHg 98%
    04:00 +23°C° 0 mm 1 mps 759 mmHg 98%
    05:00 +23°C° 0 mm 1 mps 759 mmHg 98%
    06:00 +23°C° 0 mm 1 mps 759 mmHg 98%
    07:00 +26°C° 0 mm 1 mps 760 mmHg 85%
    08:00 +29°C° 0 mm 2 mps 760 mmHg 72%
    09:00 +32°C° 0 mm 2 mps 760 mmHg 59%
    10:00 +34°C° 0 mm 3 mps 760 mmHg 51%
    11:00 +36°C° 0 mm 3 mps 759 mmHg 42%
    12:00 +38°C° 0 mm 3 mps 759 mmHg 34%
    13:00 +38°C° 0 mm 3 mps 758 mmHg 33%
    14:00 +37°C° 0 mm 4 mps 757 mmHg 33%
    15:00 +37°C° 0 mm 4 mps 757 mmHg 32%
    16:00 +35°C° 0 mm 3 mps 757 mmHg 42%
    17:00 +33°C° 0 mm 3 mps 757 mmHg 52%
    18:00 +29°C° 0 mm 3 mps 757 mmHg 61%
    19:00 +28°C° 0 mm 2 mps 758 mmHg 70%
    20:00 +27°C° 0 mm 2 mps 758 mmHg 79%
    21:00 +25°C° 0 mm 2 mps 758 mmHg 88%
    22:00 +25°C° 0 mm 1 mps 758 mmHg 91%
    23:00 +24°C° 0 mm 1 mps 758 mmHg 95%

    Tomorrow, 31 March, Tuesday

    Time Temperature Precipitation Wind Pressure Humidity
    00:00 +23°C° 0 mm 1 mps 758 mmHg 98%
    01:00 +23°C° 0 mm 1 mps 757 mmHg 98%
    02:00 +23°C° 0 mm 1 mps 757 mmHg 98%
    03:00 +23°C° 0 mm 1 mps 757 mmHg 98%
    04:00 +23°C° 0 mm 1 mps 757 mmHg 98%
    05:00 +23°C° 0 mm 1 mps 757 mmHg 98%
    06:00 +21°C° 0 mm 0 mps 757 mmHg 98%
    07:00 +26°C° 0 mm 1 mps 757 mmHg 85%
    08:00 +29°C° 0 mm 1 mps 757 mmHg 71%
    09:00 +32°C° 0 mm 2 mps 758 mmHg 57%
    10:00 +35°C° 0 mm 2 mps 757 mmHg 50%
    11:00 +36°C° 0 mm 2 mps 757 mmHg 43%
    12:00 +38°C° 0 mm 2 mps 756 mmHg 36%
    13:00 +38°C° 0 mm 2 mps 756 mmHg 37%
    14:00 +37°C° 0 mm 3 mps 755 mmHg 37%
    15:00 +37°C° 0 mm 3 mps 754 mmHg 38%
    16:00 +35°C° 0 mm 2 mps 754 mmHg 44%
    17:00 +34°C° 0 mm 2 mps 755 mmHg 50%
    18:00 +31°C° 0 mm 2 mps 755 mmHg 56%
    19:00 +29°C° 0 mm 2 mps 755 mmHg 66%
    20:00 +28°C° 0 mm 2 mps 756 mmHg 76%
    21:00 +26°C° 0 mm 1 mps 756 mmHg 86%
    22:00 +26°C° 0 mm 1 mps 756 mmHg 90%
    23:00 +25°C° 0 mm 1 mps 756 mmHg 93%

    Day after tomorrow, 1 April, Wednesday

    Time Temperature Precipitation Wind Pressure Humidity
    00:00 +22°C° 0 mm 0 mps 756 mmHg 97%
    01:00 +22°C° 0 mm 0 mps 756 mmHg 97%
    02:00 +22°C° 0 mm 0 mps 756 mmHg 98%
    03:00 +22°C° 0 mm 0 mps 755 mmHg 99%
    04:00 +22°C° 0 mm 0 mps 756 mmHg 99%
    05:00 +21°C° 0 mm 0 mps 756 mmHg 99%
    06:00 +21°C° 0 mm 0 mps 756 mmHg 99%
    07:00 +24°C° 0 mm 0 mps 756 mmHg 85%
    08:00 +29°C° 0 mm 1 mps 757 mmHg 71%
    09:00 +32°C° 0 mm 1 mps 757 mmHg 57%
    10:00 +35°C° 0 mm 1 mps 756 mmHg 47%
    11:00 +39°C° 0 mm 1 mps 756 mmHg 38%
    12:00 +42°C° 0 mm 1 mps 755 mmHg 28%
    13:00 +41°C° 0 mm 1 mps 755 mmHg 31%
    14:00 +39°C° 0 mm 1 mps 754 mmHg 33%
    15:00 +37°C° 0 mm 1 mps 754 mmHg 35%
    16:00 +35°C° 0 mm 1 mps 754 mmHg 43%
    17:00 +34°C° 0 mm 2 mps 754 mmHg 51%
    18:00 +30°C° 0 mm 2 mps 754 mmHg 60%
    19:00 +29°C° 0 mm 2 mps 755 mmHg 68%
    20:00 +27°C° 0 mm 1 mps 756 mmHg 76%
    21:00 +25°C° 0 mm 1 mps 756 mmHg 85%
    22:00 +23°C° 0 mm 0 mps 756 mmHg 89%
    23:00 +22°C° 0 mm 0 mps 756 mmHg 92%

    2 April, Thursday

    Time Temperature Precipitation Wind Pressure Humidity
    00:00 +22°C° 0 mm 0 mps 756 mmHg 96%
    01:00 +22°C° 0 mm 0 mps 756 mmHg 97%
    02:00 +21°C° 0 mm 0 mps 756 mmHg 97%
    03:00 +21°C° 0 mm 0 mps 755 mmHg 98%
    04:00 +21°C° 0 mm 0 mps 756 mmHg 98%
    05:00 +21°C° 0 mm 0 mps 756 mmHg 98%
    06:00 +21°C° 0 mm 0 mps 756 mmHg 99%
    07:00 +26°C° 0 mm 1 mps 756 mmHg 83%
    08:00 +29°C° 0 mm 1 mps 757 mmHg 68%
    09:00 +32°C° 0 mm 2 mps 757 mmHg 53%
    10:00 +35°C° 0 mm 2 mps 756 mmHg 46%
    11:00 +37°C° 0 mm 2 mps 756 mmHg 40%
    12:00 +39°C° 0 mm 2 mps 755 mmHg 33%
    13:00 +39°C° 0 mm 2 mps 755 mmHg 34%
    14:00 +39°C° 0 mm 3 mps 754 mmHg 35%
    15:00 +38°C° 0 mm 3 mps 753 mmHg 36%
    16:00 +36°C° 0 mm 3 mps 754 mmHg 43%
    17:00 +34°C° 0 mm 3 mps 754 mmHg 50%
    18:00 +31°C° 0 mm 3 mps 754 mmHg 57%
    19:00 +29°C° 0 mm 3 mps 755 mmHg 67%
    20:00 +28°C° 0 mm 2 mps 756 mmHg 76%
    21:00 +26°C° 0 mm 2 mps 756 mmHg 85%
    22:00 +25°C° 0 mm 1 mps 756 mmHg 89%
    23:00 +25°C° 0 mm 1 mps 756 mmHg 93%

    3 April, Friday

    Time Temperature Precipitation Wind Pressure Humidity
    00:00 +24°C° 0 mm 1 mps 756 mmHg 97%
    01:00 +24°C° 0 mm 1 mps 756 mmHg 98%
    02:00 +24°C° 0 mm 1 mps 756 mmHg 98%
    03:00 +23°C° 0 mm 1 mps 755 mmHg 99%
    04:00 +23°C° 0 mm 1 mps 756 mmHg 99%
    05:00 +23°C° 0 mm 1 mps 756 mmHg 99%
    06:00 +23°C° 0 mm 1 mps 756 mmHg 99%
    07:00 +26°C° 0 mm 2 mps 756 mmHg 83%
    08:00 +29°C° 0 mm 2 mps 756 mmHg 68%
    09:00 +33°C° 0 mm 3 mps 757 mmHg 53%
    10:00 +35°C° 0 mm 3 mps 756 mmHg 47%
    11:00 +36°C° 0 mm 3 mps 756 mmHg 41%
    12:00 +38°C° 0 mm 3 mps 756 mmHg 35%
    13:00 +38°C° 0 mm 3 mps 755 mmHg 35%
    14:00 +37°C° 0 mm 3 mps 754 mmHg 34%
    15:00 +37°C° 0 mm 3 mps 754 mmHg 34%
    16:00 +35°C° 0 mm 3 mps 754 mmHg 41%
    17:00 +33°C° 0 mm 3 mps 754 mmHg 47%
    18:00 +30°C° 0 mm 3 mps 754 mmHg 54%
    19:00 +28°C° 0 mm 2 mps 755 mmHg 64%
    20:00 +27°C° 0 mm 2 mps 755 mmHg 75%
    21:00 +25°C° 0 mm 2 mps 756 mmHg 86%
    22:00 +24°C° 0 mm 2 mps 756 mmHg 89%
    23:00 +24°C° 0 mm 1 mps 756 mmHg 93%

    4 April, Saturday

    Time Temperature Precipitation Wind Pressure Humidity
    00:00 +23°C° 0 mm 1 mps 756 mmHg 97%
    01:00 +23°C° 0 mm 1 mps 756 mmHg 98%
    02:00 +23°C° 0 mm 1 mps 756 mmHg 98%
    03:00 +22°C° 0 mm 1 mps 755 mmHg 99%
    04:00 +23°C° 0 mm 1 mps 756 mmHg 99%
    05:00 +23°C° 0 mm 1 mps 756 mmHg 98%
    06:00 +23°C° 0 mm 1 mps 756 mmHg 98%
    07:00 +26°C° 0 mm 2 mps 756 mmHg 84%
    08:00 +29°C° 0 mm 2 mps 756 mmHg 69%
    09:00 +33°C° 0 mm 3 mps 756 mmHg 55%
    10:00 +34°C° 0 mm 3 mps 756 mmHg 49%
    11:00 +36°C° 0 mm 3 mps 755 mmHg 43%
    12:00 +37°C° 0 mm 4 mps 755 mmHg 37%
    13:00 +37°C° 0 mm 3 mps 754 mmHg 35%
    14:00 +37°C° 0 mm 3 mps 754 mmHg 34%
    15:00 +37°C° 0 mm 3 mps 753 mmHg 33%
    16:00 +35°C° 0 mm 3 mps 753 mmHg 40%
    17:00 +33°C° 0 mm 3 mps 754 mmHg 48%
    18:00 +30°C° 0 mm 3 mps 754 mmHg 55%
    19:00 +28°C° 0 mm 2 mps 754 mmHg 65%
    20:00 +27°C° 0 mm 2 mps 755 mmHg 75%
    21:00 +25°C° 0 mm 2 mps 755 mmHg 85%
    22:00 +24°C° 0 mm 2 mps 755 mmHg 89%
    23:00 +24°C° 0 mm 1 mps 755 mmHg 94%
    Show more